Overview Statistics Trail Chart Weather Telemetry Raw packets
 

This is the latest recevied weather packets stored in our database for station/object N1SU-13. If no packets are shown the sender has not sent any weather packets the latest 10 day(s).

<< 53 54 55 56 57 58 >>
Time Temp. Humidity Pressure Rain* Wind** Luminosity Snow
1787856803 19.44° C 62% 1015.9 hPa - - - -
1787856185 18.89° C 65% 1016.1 hPa - - - -
1787855557 18.89° C 66% 1016.1 hPa - - - -
1787855194 18.33° C 67% 1016.1 hPa - - - -
1787854928 18.33° C 67% 1016.1 hPa - - - -
1787854346 17.78° C 69% 1016.2 hPa - - - -
1787853953 17.78° C 69% 1016.1 hPa - - - -
1787853715 17.78° C 70% 1016.1 hPa - - - -
1787853604 17.78° C 70% 1016.2 hPa - - - -
1787853155 17.22° C 70% 1016.2 hPa - - - -
1787852458 17.22° C 73% 1016 hPa - - - -
1787851876 17.22° C 73% 1015.9 hPa - - - -
1787851721 16.67° C 72% 1016 hPa - - - -
1787851281 16.67° C 73% 1016.1 hPa - - - -
1787851189 16.67° C 74% 1015.9 hPa - - - -
1787850662 16.67° C 75% 1015.9 hPa - - - -
1787850053 16.11° C 77% 1015.9 hPa - - - -
1787849422 16.11° C 76% 1015.8 hPa - - - -
1787848860 16.67° C 77% 1015.8 hPa - - - -
1787848209 16.11° C 77% 1015.6 hPa - - - -
1787847577 16.11° C 78% 1015.7 hPa - - - -
1787847483 16.11° C 78% 1015.7 hPa - - - -
1787846929 16.11° C 79% 1015.7 hPa - - - -
1787846329 15.56° C 80% 1015.6 hPa - - - -
1787845677 15.56° C 81% 1015.7 hPa - - - -

* Rain since midnight (hover to see other rain measurements)
** Current wind speed in m/s (hover to see current wind gust speed)